Temperature
21 20 19 19 18 18 20 22 24 25 26 26 26 26 25 23 23 23 22 23 22 21 21 20 20 20 21 21 21 21 21 21 21 21 20 20 20 20 20 19 19 19 19 19 19 19 19 19 19
21 20 19 19 19 20 22 23 25 25 26 27 27 26 24 22 22 22 23 22 22 21 21 20 20 20 21 21 21 21 21 21 21 20 20 20 20 20 20 19 19 19 19 19 19 19 19 19 19
20 19 19 18 19 20 23 25 25 26 27 27 26 25 24 22 23 23 23 22 22 21 21 20 20 20 20 21 21 21 20 20 20 20 20 20 20 20 20 19 19 19 19 19 19 19 19 19 19
20 19 19 18 20 21 23 25 25 26 27 27 26 24 23 22 23 24 23 23 22 21 21 21 20 20 20 20 20 20 20 20 20 20 20 20 20 20 20 19 19 19 19 19 19 19 19 19 19
20 20 18 18 20 21 23 25 26 26 26 26 25 23 21 22 23 24 23 23 22 22 21 21 20 20 20 20 20 20 20 20 20 20 20 20 20 20 20 20 19 19 19 19 19 19 19 19 19
20 18 18 19 21 23 25 26 26 26 26 26 25 22 20 21 23 23 23 23 22 22 21 20 20 20 20 20 20 20 20 20 20 20 20 20 20 20 20 19 19 19 19 19 19 19 19 19 19
20 17 19 20 21 23 25 26 25 25 25 25 24 21 20 20 22 23 23 22 22 21 21 21 20 20 20 20 20 20 20 19 19 19 19 19 19 19 19 19 19 19 19 19 19 19 19 19 19
21 17 19 19 21 23 25 26 25 25 24 24 24 21 20 20 21 22 22 22 21 21 21 21 20 20 20 20 20 20 19 19 19 19 19 19 19 19 19 19 19 19 19 19 19 19 19 19 18
21 18 18 20 22 23 24 24 25 24 24 23 23 23 22 21 21 22 21 21 21 21 21 21 21 20 20 20 20 19 19 19 19 19 19 19 19 19 19 18 18 19 19 19 19 19 19 18 18
21 18 19 21 22 23 24 23 23 23 23 22 22 22 22 21 21 22 22 21 21 21 21 21 20 20 20 20 20 20 19 19 19 19 19 18 18 18 18 18 18 18 18 18 18 18 18 18 18
20 19 21 22 24 24 23 22 22 22 21 21 21 21 21 21 21 21 21 22 22 21 21 21 21 20 20 20 20 19 19 19 19 18 18 18 18 18 18 18 18 18 18 18 18 18 18 18 18
20 21 22 23 24 24 23 22 21 20 20 21 21 21 21 21 21 21 21 21 21 21 21 21 20 20 20 20 19 19 19 19 18 18 18 18 18 18 18 18 18 18 17 17 17 17 17 17 17
21 21 23 23 23 22 21 20 20 19 20 20 20 20 20 20 20 20 20 20 20 20 20 20 20 20 19 19 19 19 19 18 18 18 18 18 18 18 18 18 17 17 17 17 17 17 17 17 17
23 22 22 22 22 21 20 19 19 18 19 19 19 19 19 19 20 20 20 20 20 20 20 20 20 20 19 19 18 18 18 18 18 18 18 18 18 17 17 17 17 17 17 17 17 17 17 17 17
23 22 21 21 21 21 20 19 18 18 19 19 18 18 19 19 19 20 20 20 20 20 20 19 19 19 19 18 18 18 18 18 18 18 18 17 17 17 17 17 17 17 16 17 17 17 17 17 17
21 21 20 20 20 20 20 18 18 18 19 18 18 18 18 18 19 19 19 19 20 19 19 19 19 19 18 18 18 18 18 17 17 17 17 17 17 17 17 17 16 16 16 16 16 16 16 16 16
20 20 20 20 19 19 19 18 18 18 18 17 18 18 19 19 19 19 19 19 20 19 19 19 19 18 18 18 18 18 17 17 17 17 17 17 16 16 16 16 16 16 16 16 16 16 16 16 16
21 20 20 19 19 19 17 17 17 17 18 17 17 18 19 19 19 19 19 19 19 19 19 19 19 18 18 18 18 18 17 17 17 17 17 16 16 16 16 16 16 16 16 16 16 15 15 15 15
21 20 19 19 19 18 17 17 17 17 17 17 17 17 18 18 19 19 19 19 19 19 19 19 19 19 18 18 18 17 17 17 17 16 16 16 16 16 16 15 15 15 15 15 15 15 15 15 15
20 20 19 19 19 18 17 17 17 17 17 17 17 17 18 19 19 19 19 19 19 19 19 19 19 18 18 18 18 17 17 17 16 16 16 16 15 15 15 15 15 15 14 14 14 14 14 14 14
21 20 19 19 18 18 18 17 17 17 17 17 17 18 18 19 19 19 19 19 19 19 19 19 18 18 18 18 17 17 17 16 16 16 15 15 15 15 14 14 14 14 14 14 14 14 14 14 14
21 21 20 19 18 16 17 17 17 16 17 17 17 18 19 19 19 19 19 19 19 19 19 18 18 18 18 17 17 17 16 16 15 15 15 14 14 14 14 14 14 13 13 13 13 13 13 13 13
20 20 19 18 17 16 16 17 17 16 17 17 17 18 19 19 19 20 20 20 19 19 19 18 18 18 17 17 16 16 16 15 15 14 14 14 14 13 13 13 13 13 13 13 13 13 13 13 13
20 19 17 16 16 17 16 16 17 16 17 17 18 19 20 20 20 20 20 19 19 19 18 18 18 17 17 16 16 15 15 15 14 14 13 13 13 13 13 13 13 12 12 12 12 12 12 12 12
19 18 17 18 16 16 16 16 16 17 17 17 18 19 20 20 20 20 20 19 19 19 18 18 17 17 16 16 15 15 14 14 13 13 13 13 12 12 12 12 12 12 12 12 12 12 12 12 12
19 19 18 19 17 16 16 16 17 18 18 19 19 19 20 20 20 20 20 19 19 19 18 17 17 16 16 15 15 14 13 13 13 12 12 12 12 11 11 11 11 11 11 11 11 11 12 12 12
19 18 17 15 16 16 17 17 17 18 18 18 18 19 20 20 20 20 20 19 19 18 17 17 16 15 15 14 14 13 13 12 12 12 11 11 11 11 10 10 10 10 10 10 11 11 11 11 11
19 16 15 16 17 18 18 17 17 19 18 18 18 19 20 20 20 20 19 19 18 17 17 16 15 15 14 13 13 12 12 11 11 11 11 10 10 10 10 10 10 10 10 10 10 10 10 11 11
20 18 15 14 16 17 18 17 17 18 18 18 18 19 20 20 20 19 19 18 17 17 16 15 15 14 13 13 12 12 11 11 10 10 10 10 10 9 9 9 9 9 9 9 9 9 10 10 10
21 19 16 18 17 15 16 17 18 17 17 18 19 20 20 20 19 19 18 18 17 16 15 15 14 13 13 12 11 11 11 10 10 10 10 9 9 9 9 9 9 9 9 9 9 9 9 9 9
Wind_Speed
14 10 3 2 2 2 5 5 3 4 3 2 2 4 5 4 2 3 4 12 17 16 17 21 21 21 21 20 20 19 19 19 19 19 19 18 18 17 16 15 14 13 12 11 9 8 8 9 9
10 5 2 3 2 2 5 4 3 3 2 1 3 4 5 4 4 7 7 11 17 15 16 19 21 21 21 20 19 19 18 18 18 18 17 17 16 16 15 14 13 12 11 11 10 9 9 9 9
7 2 3 3 1 3 6 5 4 4 3 1 3 5 4 3 5 6 8 15 15 13 14 19 22 20 20 19 18 18 17 17 17 16 16 15 15 14 14 13 12 12 11 11 10 9 9 9 9
4 3 3 2 4 5 6 9 7 6 3 2 4 5 5 5 3 8 15 17 17 13 14 18 21 20 19 18 17 17 16 16 15 15 15 14 14 13 13 12 11 11 10 10 10 9 9 9 9
3 4 3 2 6 6 6 9 6 4 2 2 4 5 4 6 9 15 17 17 16 13 12 17 20 19 19 18 17 16 15 14 14 14 13 13 13 12 12 11 11 10 10 10 9 8 8 9 9
4 4 2 3 6 7 6 6 4 2 1 2 5 5 3 4 9 12 14 14 13 13 10 14 19 18 18 17 16 15 15 14 14 13 13 12 12 12 11 11 10 10 10 9 9 8 8 8 8
4 4 2 4 6 6 5 6 5 4 3 2 4 5 3 4 7 11 12 12 12 10 8 9 14 16 16 16 16 15 14 14 14 13 13 13 12 12 11 11 10 10 10 10 10 9 9 9 9
5 4 1 4 5 6 5 6 4 5 3 3 4 6 5 6 10 12 12 12 11 8 7 6 9 11 12 13 14 14 14 13 13 13 13 12 12 12 12 11 11 11 11 11 11 11 11 10 10
4 3 3 5 5 6 5 5 5 3 4 4 5 4 8 15 15 14 13 11 10 10 6 5 6 7 9 10 12 12 13 12 12 11 12 12 10 9 10 11 12 12 12 12 12 12 12 12 11
4 3 8 7 6 5 6 4 4 3 5 5 7 10 16 15 13 13 13 13 12 11 8 5 5 5 6 7 6 6 6 7 8 7 8 8 8 8 9 10 12 13 13 13 14 14 13 13 11
7 7 7 8 9 6 4 2 4 3 4 2 6 13 14 13 11 10 10 10 10 9 8 7 5 4 4 2 2 2 2 3 5 6 7 6 6 7 8 7 9 11 12 12 12 13 12 12 11
6 8 7 7 5 3 2 2 4 6 3 4 8 12 12 11 9 8 8 8 7 7 6 6 6 4 4 3 2 3 3 3 4 6 7 6 4 5 6 6 7 8 8 8 9 9 11 13 13
6 6 5 6 4 2 7 6 6 7 8 11 13 12 10 9 7 5 5 5 6 6 5 5 5 5 4 3 2 3 3 3 5 5 6 7 4 4 5 5 5 7 8 7 6 7 8 9 11
5 3 4 4 3 3 10 6 6 5 8 13 13 11 9 8 7 6 5 5 5 4 4 4 5 4 3 3 2 2 3 4 4 4 6 7 6 5 4 4 4 4 5 6 6 7 7 7 7
2 2 5 5 3 2 8 10 6 3 8 12 12 10 9 8 7 6 5 5 5 5 5 4 5 4 4 4 3 2 2 3 2 2 3 4 5 4 3 3 3 4 5 5 5 6 5 5 7
3 4 4 6 6 4 7 6 3 2 8 10 9 9 8 6 6 5 4 4 4 6 6 5 5 5 5 4 3 2 2 2 1 2 1 2 3 3 2 1 2 4 3 3 3 4 4 5 6
5 2 2 4 6 3 6 6 2 2 7 8 6 7 7 6 5 3 3 4 4 5 7 6 6 5 5 4 3 2 2 1 1 1 1 1 1 2 2 1 2 2 2 2 3 2 3 4 5
3 1 1 2 4 5 7 6 3 3 5 6 5 4 5 5 2 2 2 3 3 4 5 6 5 4 4 4 3 2 1 0 0 1 1 2 2 2 2 1 2 1 1 2 2 3 3 4 5
3 3 2 1 2 5 7 6 3 3 4 4 2 2 3 3 2 2 2 2 3 3 4 4 5 4 4 3 2 2 2 1 1 2 2 2 2 2 2 2 2 2 2 3 3 2 3 3 2
4 4 3 3 4 5 5 3 1 1 2 3 3 3 3 2 2 2 3 3 3 3 3 3 4 4 3 2 2 2 1 1 1 2 2 3 2 3 3 3 3 3 2 3 3 2 1 2 2
1 4 4 5 3 6 4 2 0 1 1 2 3 4 3 5 6 5 5 5 5 5 5 5 5 4 3 2 2 2 2 1 1 2 2 3 4 4 4 4 4 4 3 4 4 3 3 2 2
1 1 5 6 5 3 3 0 3 2 1 2 4 4 5 6 6 7 7 7 7 6 4 4 4 4 3 3 2 3 2 2 3 2 2 4 4 4 4 4 4 4 4 5 5 4 3 3 3
3 6 8 6 5 4 5 2 5 2 2 5 6 6 7 8 8 8 8 8 6 5 5 4 3 3 2 2 2 2 3 3 2 2 4 4 4 4 4 4 3 4 4 5 5 4 4 4 4
8 7 7 6 5 3 3 1 4 4 5 5 5 5 5 6 6 6 5 5 4 3 3 2 2 2 1 1 2 3 4 4 4 4 4 4 3 4 4 4 3 4 4 5 5 5 6 5 5
5 6 4 5 5 2 2 1 7 6 6 6 6 5 4 4 5 5 5 4 4 3 2 1 2 2 2 2 2 3 4 4 5 5 4 4 3 3 5 4 4 4 5 5 5 5 6 6 6
4 7 6 3 2 3 2 4 7 6 5 5 6 5 4 3 4 5 5 5 4 3 2 2 2 2 2 2 3 3 3 3 4 4 4 4 4 5 5 5 5 5 5 5 5 5 6 5 6
6 4 5 7 3 1 4 6 7 3 3 3 4 4 4 3 4 3 3 3 3 3 2 2 2 2 3 3 3 3 3 3 4 4 4 4 5 5 5 5 6 6 6 6 5 5 6 6 6
5 8 6 6 4 1 5 4 5 6 6 5 5 5 4 4 3 3 2 2 2 2 1 1 1 2 3 3 3 3 4 4 4 4 5 6 6 5 6 6 6 7 7 6 5 6 6 7 7
4 5 6 5 5 5 3 7 7 9 8 8 8 6 6 6 4 3 2 1 1 0 1 1 2 2 3 4 4 5 5 5 5 5 6 6 6 6 7 7 7 7 8 7 6 7 8 8 8
3 6 7 5 3 4 4 7 5 7 7 7 7 5 5 5 3 3 2 1 1 2 2 3 3 4 4 4 4 5 6 5 6 7 7 7 7 7 7 7 8 9 9 8 8 9 9 9 9
Wind_Direction
138 134 125 101 53 19 279 265 253 299 321 353 52 83 101 102 153 156 118 138 136 144 153 153 150 145 141 139 138 137 137 136 137 138 140 144 147 151 153 156 158 160 160 156 152 147 141 137 134
136 139 97 76 71 335 287 269 284 281 240 218 62 76 69 63 71 108 127 139 140 144 150 153 152 148 144 142 142 142 141 141 142 143 145 148 151 154 157 159 161 163 163 159 156 153 148 144 142
148 145 98 84 131 227 279 297 301 302 274 256 73 64 73 94 124 135 144 140 137 141 146 156 155 151 147 146 145 146 146 147 147 149 151 153 156 159 161 163 166 167 166 164 162 161 157 153 151
134 67 67 72 258 244 251 282 292 300 320 33 99 71 62 35 128 136 136 140 140 141 146 159 157 155 152 150 149 150 151 153 154 156 158 160 163 166 168 170 172 174 174 173 169 169 167 164 162
74 84 53 326 271 261 257 274 277 279 316 46 90 87 47 13 96 126 136 142 143 142 147 161 160 159 157 155 155 156 158 161 162 164 166 168 171 174 177 179 182 183 183 181 178 179 178 177 175
64 70 72 287 280 278 285 299 318 329 15 72 86 87 53 79 112 129 135 138 141 143 143 157 162 163 162 162 163 165 167 170 172 173 175 179 181 184 186 189 193 194 194 191 189 192 193 193 190
111 111 197 256 283 294 307 342 3 358 21 47 98 97 89 114 119 122 125 130 136 139 137 146 159 165 167 169 171 174 177 180 182 182 185 189 192 196 198 201 204 207 206 202 200 203 207 208 206
134 111 282 271 270 282 309 347 357 12 20 34 88 130 155 147 124 116 118 126 134 134 133 131 145 155 162 172 179 182 186 188 189 191 195 198 202 206 210 210 213 217 217 215 214 214 216 218 220
117 80 254 245 248 274 313 347 345 1 57 40 51 102 130 130 127 121 125 134 145 149 141 131 134 146 156 168 185 190 194 197 200 204 208 209 212 215 220 221 222 226 230 229 226 226 225 225 229
122 175 232 227 225 262 308 334 335 30 45 46 62 86 116 129 135 137 144 154 162 165 164 149 144 148 155 172 184 193 199 203 206 211 220 217 214 220 227 233 234 237 241 242 239 236 234 232 231
175 209 242 252 245 250 277 335 9 91 46 50 125 129 132 136 139 144 153 162 166 161 163 164 160 152 156 145 140 171 191 209 217 220 225 225 222 227 232 237 245 247 249 249 249 246 238 232 227
202 249 248 273 279 243 205 101 54 57 71 86 121 131 134 135 141 149 156 160 146 143 156 164 164 165 168 155 152 172 197 215 227 229 226 220 224 231 233 237 242 245 246 245 244 243 240 236 233
220 263 276 283 309 111 96 89 94 53 74 91 96 103 111 119 116 104 107 115 124 140 159 161 156 166 174 162 185 187 197 216 231 238 236 229 229 235 234 237 242 248 249 248 250 245 241 239 238
232 239 318 341 24 76 100 78 74 57 80 88 90 91 96 101 104 102 103 105 117 135 142 137 140 151 147 163 186 200 196 202 210 230 231 225 225 232 233 238 244 252 252 251 251 251 243 242 238
289 324 360 10 18 91 96 59 49 75 92 90 91 90 88 86 90 97 101 109 125 128 129 132 134 138 145 150 165 194 185 181 189 223 233 235 227 222 225 237 253 262 261 260 260 261 251 247 244
23 31 8 340 9 30 87 102 64 56 98 94 94 94 89 80 80 86 105 118 129 134 135 137 148 144 146 149 155 161 150 152 181 201 206 228 225 221 215 226 254 268 271 265 261 258 257 253 250
26 23 328 338 7 50 88 125 96 55 97 97 99 102 103 94 83 89 112 133 134 138 137 139 143 149 154 145 138 131 126 147 190 194 216 231 214 197 176 206 251 268 263 260 266 257 249 260 261
250 235 329 7 11 72 98 113 92 74 97 103 107 111 110 113 140 168 157 138 129 131 135 141 144 150 145 130 121 112 109 161 189 226 239 228 210 194 186 221 261 260 257 263 256 257 251 252 262
160 145 112 50 69 75 100 112 106 93 102 108 116 128 143 149 173 175 174 158 143 146 145 151 154 163 152 140 145 154 192 218 231 243 245 244 238 228 221 234 253 247 245 255 262 262 268 263 251
135 126 117 81 62 84 102 95 94 112 146 177 190 188 183 186 207 215 217 200 195 191 182 176 178 180 176 164 158 163 163 218 241 276 291 283 271 256 239 232 245 244 251 265 259 242 263 271 246
141 162 168 146 86 65 79 29 314 259 172 199 213 207 204 205 218 224 228 225 217 215 206 197 200 198 193 168 120 84 58 19 339 293 283 287 290 282 266 252 244 243 232 250 253 235 226 256 270
285 149 136 123 102 52 43 220 291 288 303 232 226 213 217 227 228 228 228 230 227 225 212 208 207 208 206 180 174 174 188 223 239 245 267 292 296 293 284 269 253 246 235 242 251 235 223 229 256
112 78 86 91 97 67 26 68 294 330 262 249 238 224 224 228 228 229 227 227 227 219 210 207 205 220 221 200 202 206 229 241 264 274 284 290 296 293 291 283 270 258 247 245 247 243 231 223 231
119 76 60 52 67 44 349 43 283 241 229 244 245 243 241 231 226 227 224 210 213 208 205 194 197 243 255 241 236 230 247 262 274 276 281 288 297 300 297 290 277 270 261 253 248 241 237 231 233
88 89 38 10 21 284 299 291 257 252 231 227 242 255 255 233 211 206 201 199 200 196 195 177 191 261 285 274 267 256 255 256 255 263 265 275 287 289 292 294 284 275 266 262 254 247 247 238 235
154 133 152 193 210 281 316 256 257 251 246 238 237 235 236 225 208 202 202 198 191 176 166 165 182 253 293 285 281 275 264 252 255 257 256 260 261 269 278 283 282 281 279 275 260 252 252 247 243
131 133 145 122 117 26 291 288 302 246 254 231 218 215 219 203 184 181 167 156 155 146 153 170 187 252 279 277 279 278 270 258 263 268 261 262 262 271 274 278 281 283 282 277 270 260 259 252 246
123 137 104 108 129 289 305 287 250 249 231 215 209 209 208 185 172 157 142 140 147 157 165 189 216 248 273 284 282 281 277 275 275 278 275 271 271 271 278 279 277 278 278 276 269 264 261 256 254
116 100 102 104 141 150 245 272 225 220 211 206 214 207 201 194 186 176 159 142 145 162 234 272 279 279 284 284 285 288 287 289 288 280 276 275 275 275 273 274 276 276 274 272 266 263 263 258 259
164 161 149 146 191 167 178 266 265 229 218 207 213 206 191 181 174 169 163 166 226 263 282 286 283 278 276 280 285 285 287 290 287 281 279 277 276 275 272 274 275 274 273 266 261 264 265 258 258
Height
1513 1515 1517 1520 1522 1526 1522 1509 1499 1495 1491 1489 1488 1488 1490 1493 1497 1502 1499 1500 1505 1509 1513 1518 1521 1524 1527 1529 1531 1533 1535 1537 1539 1540 1542 1543 1545 1546 1547 1548 1550 1551 1552 1553 1554 1554 1555 1556 1556
1514 1516 1519 1520 1524 1530 1519 1502 1497 1493 1490 1489 1489 1490 1492 1494 1495 1496 1497 1501 1506 1510 1514 1518 1522 1525 1528 1530 1533 1534 1536 1538 1540 1541 1543 1544 1546 1547 1548 1549 1550 1552 1553 1554 1554 1555 1556 1557 1557
1515 1517 1519 1520 1525 1526 1514 1498 1494 1490 1489 1488 1489 1491 1494 1496 1496 1497 1499 1503 1508 1512 1516 1520 1523 1527 1529 1532 1534 1536 1537 1539 1541 1542 1544 1545 1546 1548 1549 1550 1551 1552 1553 1554 1555 1556 1557 1558 1559
1515 1518 1519 1523 1523 1515 1506 1496 1492 1490 1488 1488 1489 1493 1496 1499 1499 1500 1501 1505 1509 1513 1517 1521 1525 1528 1531 1533 1535 1537 1539 1540 1542 1543 1545 1546 1547 1548 1550 1551 1552 1553 1554 1555 1556 1557 1558 1559 1559
1516 1517 1522 1526 1521 1508 1499 1494 1491 1489 1489 1489 1490 1494 1498 1499 1500 1502 1504 1507 1510 1514 1519 1522 1526 1529 1532 1534 1536 1538 1540 1541 1543 1544 1545 1547 1548 1549 1550 1551 1552 1554 1555 1556 1557 1558 1558 1559 1560
1516 1517 1528 1529 1518 1504 1497 1493 1490 1488 1489 1490 1492 1495 1500 1501 1502 1504 1506 1508 1512 1516 1520 1524 1527 1530 1533 1535 1537 1539 1541 1542 1543 1545 1546 1547 1548 1549 1550 1551 1553 1554 1555 1556 1557 1558 1559 1560 1561
1517 1521 1526 1523 1517 1506 1496 1493 1492 1490 1490 1492 1493 1497 1501 1502 1503 1505 1508 1510 1514 1518 1521 1524 1527 1531 1534 1536 1538 1540 1541 1543 1544 1545 1546 1547 1548 1550 1551 1552 1553 1554 1555 1556 1557 1558 1559 1560 1561
1515 1520 1523 1522 1515 1506 1496 1493 1493 1492 1493 1494 1494 1497 1500 1502 1504 1506 1509 1512 1515 1519 1522 1525 1528 1531 1534 1536 1539 1540 1542 1543 1544 1546 1546 1547 1548 1549 1550 1551 1552 1553 1554 1555 1556 1557 1558 1559 1560
1515 1523 1527 1518 1511 1503 1496 1494 1494 1494 1494 1495 1496 1497 1499 1502 1505 1507 1510 1513 1516 1520 1523 1526 1529 1531 1533 1536 1538 1540 1542 1543 1544 1546 1546 1547 1548 1548 1549 1550 1551 1552 1553 1554 1555 1556 1557 1558 1559
1514 1523 1517 1506 1502 1499 1496 1495 1495 1495 1495 1497 1497 1499 1501 1504 1506 1508 1510 1513 1516 1519 1523 1526 1529 1531 1533 1536 1538 1540 1541 1543 1544 1545 1546 1546 1547 1547 1548 1549 1549 1550 1551 1552 1553 1554 1555 1556 1557
1510 1512 1504 1500 1497 1497 1496 1496 1497 1496 1499 1499 1499 1500 1502 1504 1507 1510 1512 1514 1517 1520 1523 1526 1529 1531 1533 1535 1538 1539 1540 1541 1543 1544 1544 1545 1546 1546 1546 1547 1548 1548 1549 1550 1551 1552 1552 1553 1554
1507 1503 1500 1497 1495 1495 1495 1496 1498 1498 1501 1501 1501 1502 1504 1506 1509 1511 1513 1515 1518 1521 1524 1526 1528 1531 1533 1534 1536 1538 1539 1540 1541 1542 1543 1543 1544 1544 1545 1545 1545 1546 1547 1547 1548 1548 1549 1550 1551
1504 1501 1497 1496 1493 1493 1494 1497 1499 1502 1502 1502 1503 1505 1507 1509 1511 1513 1515 1518 1519 1521 1524 1526 1528 1530 1532 1534 1535 1536 1536 1538 1539 1540 1540 1541 1541 1542 1542 1542 1543 1543 1543 1544 1544 1544 1545 1545 1546
1500 1498 1497 1495 1493 1493 1495 1499 1501 1505 1504 1504 1504 1506 1508 1510 1512 1514 1515 1517 1519 1521 1524 1526 1527 1529 1532 1533 1534 1534 1535 1535 1535 1537 1537 1538 1538 1539 1539 1539 1539 1539 1540 1540 1540 1540 1541 1541 1541
1498 1498 1498 1496 1494 1495 1495 1504 1507 1508 1506 1506 1507 1509 1510 1511 1513 1514 1516 1518 1519 1522 1523 1525 1527 1528 1530 1532 1532 1533 1533 1533 1533 1534 1535 1535 1535 1535 1535 1535 1535 1535 1536 1536 1535 1536 1536 1536 1536
1499 1503 1507 1500 1497 1497 1501 1514 1511 1510 1508 1508 1509 1511 1512 1513 1514 1516 1517 1519 1520 1522 1523 1525 1526 1527 1529 1530 1531 1532 1531 1531 1532 1532 1532 1532 1532 1532 1532 1531 1531 1532 1531 1531 1531 1531 1530 1530 1530
1507 1512 1510 1505 1500 1499 1504 1513 1512 1511 1510 1510 1511 1512 1513 1514 1516 1518 1519 1520 1521 1522 1523 1525 1526 1527 1529 1529 1530 1531 1530 1530 1530 1530 1530 1530 1530 1529 1529 1528 1528 1528 1527 1527 1526 1526 1525 1525 1525
1511 1511 1511 1510 1505 1503 1507 1512 1512 1512 1511 1512 1513 1513 1513 1514 1517 1519 1520 1521 1522 1523 1524 1525 1526 1527 1528 1528 1529 1529 1529 1528 1528 1528 1528 1528 1527 1527 1526 1526 1525 1525 1524 1523 1522 1521 1521 1520 1520
1502 1508 1511 1510 1505 1508 1511 1514 1514 1513 1513 1515 1515 1515 1515 1516 1518 1519 1520 1521 1522 1524 1524 1525 1526 1526 1527 1528 1528 1528 1528 1527 1527 1527 1526 1525 1525 1524 1523 1523 1522 1521 1521 1520 1518 1517 1516 1516 1515
1502 1509 1511 1510 1507 1511 1516 1517 1516 1515 1515 1516 1515 1515 1516 1516 1518 1519 1520 1521 1522 1523 1524 1525 1525 1526 1526 1527 1527 1527 1526 1526 1525 1524 1523 1523 1522 1521 1520 1520 1519 1518 1517 1516 1515 1514 1513 1512 1511
1503 1507 1509 1512 1512 1513 1517 1522 1519 1517 1516 1516 1516 1516 1516 1517 1518 1518 1520 1521 1522 1523 1524 1524 1525 1525 1525 1525 1525 1525 1524 1523 1522 1521 1520 1520 1518 1518 1517 1516 1515 1515 1514 1513 1512 1511 1510 1509 1508
1506 1501 1503 1508 1518 1526 1523 1533 1523 1519 1517 1516 1515 1515 1515 1516 1517 1518 1519 1520 1521 1523 1523 1524 1524 1524 1524 1524 1523 1522 1521 1520 1519 1518 1517 1516 1515 1514 1513 1512 1512 1511 1510 1509 1509 1508 1507 1506 1505
1503 1501 1505 1512 1520 1528 1529 1533 1528 1520 1518 1515 1514 1513 1513 1514 1515 1516 1518 1519 1520 1521 1522 1522 1522 1522 1522 1521 1521 1520 1518 1517 1516 1515 1514 1513 1512 1510 1509 1509 1508 1507 1506 1505 1505 1504 1504 1503 1502
1500 1506 1512 1520 1526 1537 1534 1536 1531 1522 1516 1513 1511 1511 1511 1513 1514 1515 1516 1518 1518 1519 1520 1520 1520 1520 1520 1519 1518 1516 1515 1514 1512 1511 1510 1508 1507 1506 1505 1504 1503 1502 1501 1501 1500 1500 1499 1499 1498
1502 1517 1533 1535 1543 1541 1533 1534 1529 1513 1509 1509 1509 1509 1510 1511 1512 1513 1515 1516 1517 1517 1517 1517 1517 1517 1516 1515 1514 1513 1511 1510 1508 1506 1505 1503 1502 1501 1500 1499 1498 1497 1497 1496 1495 1495 1495 1494 1494
1505 1512 1532 1539 1544 1541 1533 1534 1520 1506 1505 1505 1506 1507 1508 1509 1510 1512 1513 1514 1514 1515 1515 1515 1515 1514 1513 1512 1510 1509 1507 1505 1504 1502 1500 1499 1497 1496 1495 1494 1493 1492 1491 1491 1490 1489 1489 1489 1489
1506 1513 1516 1532 1538 1541 1536 1527 1513 1504 1504 1504 1504 1505 1506 1507 1509 1510 1511 1512 1512 1513 1513 1512 1512 1511 1510 1508 1506 1505 1503 1501 1499 1498 1496 1494 1493 1491 1490 1489 1487 1487 1486 1485 1484 1483 1483 1483 1483
1498 1509 1522 1531 1541 1542 1533 1528 1522 1507 1504 1503 1503 1503 1504 1506 1507 1509 1509 1510 1511 1511 1511 1510 1509 1508 1506 1505 1503 1501 1499 1497 1495 1493 1491 1489 1488 1486 1485 1483 1482 1481 1480 1479 1478 1477 1477 1477 1477
1503 1510 1520 1531 1531 1542 1542 1531 1504 1501 1499 1500 1500 1501 1503 1505 1506 1507 1508 1509 1509 1509 1508 1507 1506 1504 1503 1501 1499 1497 1495 1493 1491 1489 1487 1485 1483 1481 1479 1478 1476 1475 1474 1473 1472 1471 1471 1470 1470
1494 1502 1514 1523 1530 1535 1537 1528 1494 1494 1494 1496 1498 1500 1502 1504 1505 1506 1507 1508 1508 1507 1506 1505 1503 1501 1499 1497 1495 1493 1491 1488 1486 1484 1482 1480 1478 1476 1474 1472 1471 1469 1468 1466 1465 1464 1464 1463 1463